Date String (YYYY-MM-DD hh:mm:ss) UTC,Instrument flags,absolute air pressure of the measurement (hPa),sample flow rate (lpm),inlet stack bypass flow (lpm),air temperature of the measurement (°C),ambient temperature measured by the external sensor (°C),aerosol sample conditioner tube jacket temperature (°C),OPC LED temperature (°C),internal box temperature (°C),relative humidity of the measurement (%),span deviation,mass concentration of particles derived from Lorenz-Mie calculation of OPC scattering (μg/m³),mass concentration of particles derived from Lorenz-Mie calculation of OPC scattering (μg/m³),mass concentration of particles derived from Lorenz-Mie calculation of OPC scattering (μg/m³)
DateTimeUTC,F1_M11,P_M11,Q1_M11,Q2_M11,T1_M11,T2_M11,T3_M11,T4_M11,T5_M11,U1_M11,ZSPAN_M11,X2_M11,X0_M11,X1_M11
2024-04-22 22:00:00,SystemResetWarning,0822.9,5.00,000.00,024.7,022.8,000.0,033.3,026.2,015.0,0000.0,0002.63,0007.22,0001.84
2024-04-22 22:01:00,SystemResetWarning,0822.9,5.00,000.00,024.8,023.2,000.0,033.3,026.5,015.3,0000.0,0002.66,0007.15,0001.86
2024-04-22 22:02:00,SystemResetWarning,0822.9,5.00,000.00,024.9,023.5,000.0,033.3,026.6,015.7,0000.0,0002.72,0007.29,0001.87
2024-04-22 22:03:00,SystemResetWarning,0822.9,4.99,000.00,024.9,023.8,000.0,033.3,026.7,015.3,0000.0,0002.74,0006.65,0001.88
2024-04-22 22:04:00,SystemResetWarning,0823.0,5.00,000.00,025.0,024.0,000.0,033.3,026.9,015.3,0000.0,0002.74,0006.83,0001.90
2024-04-22 22:05:00,SystemResetWarning,0822.9,5.00,000.00,025.1,024.2,000.0,033.3,027.0,015.2,0000.0,0002.68,0007.94,0001.89
2024-04-22 22:06:00,SystemResetWarning,0822.9,5.01,000.00,025.2,024.4,000.0,033.3,027.1,015.3,0000.0,0002.65,0008.43,0001.89
2024-04-22 22:07:00,SystemResetWarning,0822.9,5.00,000.00,025.3,024.6,000.0,033.4,027.2,015.1,0000.0,0002.65,0008.44,0001.90
2024-04-22 22:08:00,SystemResetWarning,0822.7,5.00,000.00,025.3,024.7,000.0,033.4,027.3,015.0,0000.0,0002.62,0008.70,0001.90
2024-04-22 22:09:00,SystemResetWarning,0822.8,4.99,000.00,025.4,024.8,000.0,033.4,027.4,014.5,0000.0,0002.64,0009.39,0001.91
2024-04-22 22:10:00,SystemResetWarning,0822.7,4.99,000.00,025.5,024.9,000.0,033.5,027.4,014.4,0000.0,0002.63,0009.43,0001.91
2024-04-22 22:11:00,SystemResetWarning,0822.6,5.00,000.00,025.5,025.0,000.0,033.5,027.5,015.0,0000.0,0002.62,0009.13,0001.91
2024-04-22 22:12:00,SystemResetWarning,0822.7,5.00,000.00,025.6,024.9,000.0,033.6,027.4,014.3,0000.0,0002.58,0008.82,0001.90
2024-04-22 22:13:00,SystemResetWarning,0822.7,4.99,000.00,025.4,023.0,000.0,033.7,026.3,014.6,0000.0,0002.55,0008.72,0001.89
2024-04-22 22:14:00,SystemResetWarning,0822.6,5.02,000.00,024.9,021.5,000.0,033.6,025.5,015.1,0000.0,0002.57,0008.86,0001.88
2024-04-22 22:15:00,SystemResetWarning,0822.6,5.00,000.00,024.7,021.9,000.0,033.6,025.6,015.6,0000.0,0002.59,0009.70,0001.88
2024-04-22 22:16:00,SystemResetWarning,0822.7,5.00,000.00,024.7,022.3,000.0,033.4,025.8,015.5,0000.0,0002.58,0009.76,0001.88
2024-04-22 22:17:00,SystemResetWarning,0822.7,5.00,000.00,024.7,022.7,000.0,033.3,026.1,015.9,0000.0,0002.58,0009.16,0001.87
2024-04-22 22:18:00,SystemResetWarning,0822.8,5.00,000.00,024.8,023.1,000.0,033.3,026.4,015.8,0000.0,0002.56,0009.16,0001.86
2024-04-22 22:19:00,SystemResetWarning,0823.0,4.99,000.00,024.8,023.4,000.0,033.3,026.6,016.4,0000.0,0002.58,0009.07,0001.86
2024-04-22 22:20:00,SystemResetWarning,0822.9,5.00,000.00,024.9,023.7,000.0,033.3,026.7,016.1,0000.0,0002.54,0008.23,0001.86
2024-04-22 22:21:00,SystemResetWarning,0822.9,5.00,000.00,025.0,024.0,000.0,033.3,026.8,016.3,0000.0,0002.57,0008.64,0001.85
2024-04-22 22:22:00,SystemResetWarning,0822.8,5.01,000.00,025.1,024.2,000.0,033.3,027.0,015.9,0000.0,0002.54,0008.58,0001.84
2024-04-22 22:23:00,SystemResetWarning,0822.9,5.00,000.00,025.2,024.4,000.0,033.3,027.1,015.8,0000.0,0002.59,0008.66,0001.84
2024-04-22 22:24:00,SystemResetWarning,0823.0,5.00,000.00,025.2,024.5,000.0,033.3,027.2,015.9,0000.0,0002.60,0008.84,0001.85
2024-04-22 22:25:00,SystemResetWarning,0822.9,5.00,000.00,025.3,024.7,000.0,033.4,027.2,015.8,0000.0,0002.60,0009.19,0001.85
2024-04-22 22:26:00,SystemResetWarning,0822.9,5.00,000.00,025.4,024.8,000.0,033.4,027.3,015.5,0000.0,0002.63,0008.72,0001.84
2024-04-22 22:27:00,SystemResetWarning,0823.1,4.99,000.00,025.4,024.9,000.0,033.5,027.4,015.7,0000.0,0002.70,0007.73,0001.86
2024-04-22 22:28:00,SystemResetWarning,0823.1,4.99,000.00,025.5,024.7,000.0,033.5,027.2,016.1,0000.0,0002.69,0007.60,0001.86
2024-04-22 22:29:00,SystemResetWarning,0823.0,5.01,000.00,025.2,022.7,000.0,033.6,026.1,015.8,0000.0,0002.73,0007.62,0001.87
2024-04-22 22:30:00,SystemResetWarning,0823.0,5.00,000.00,024.8,021.2,000.0,033.6,025.3,015.9,0000.0,0002.76,0007.59,0001.87
2024-04-22 22:31:00,SystemResetWarning,0823.0,5.02,000.00,024.6,021.6,000.0,033.5,025.4,016.3,0000.0,0002.83,0007.67,0001.88
2024-04-22 22:32:00,SystemResetWarning,0823.0,4.99,000.00,024.5,022.0,000.0,033.3,025.6,016.5,0000.0,0002.84,0007.26,0001.89
2024-04-22 22:33:00,SystemResetWarning,0823.1,4.99,000.00,024.6,022.4,000.0,033.2,026.0,016.4,0000.0,0002.89,0007.19,0001.90
2024-04-22 22:34:00,SystemResetWarning,0823.1,5.00,000.00,024.6,022.8,000.0,033.2,026.2,015.9,0000.0,0002.91,0007.74,0001.91
2024-04-22 22:35:00,SystemResetWarning,0823.0,5.01,000.00,024.7,023.2,000.0,033.1,026.4,015.7,0000.0,0002.91,0007.37,0001.91
2024-04-22 22:36:00,SystemResetWarning,0823.1,5.00,000.00,024.7,023.5,000.0,033.1,026.6,015.2,0000.0,0002.93,0006.66,0001.92
2024-04-22 22:37:00,SystemResetWarning,0823.0,5.00,000.00,024.8,023.7,000.0,033.1,026.7,016.0,0000.0,0002.88,0006.23,0001.92
2024-04-22 22:38:00,SystemResetWarning,0823.0,5.00,000.00,024.9,024.0,000.0,033.1,026.8,016.3,0000.0,0002.78,0006.05,0001.88
2024-04-22 22:39:00,SystemResetWarning,0823.1,5.00,000.00,025.0,024.2,000.0,033.1,026.9,016.1,0000.0,0002.77,0006.84,0001.84
2024-04-22 22:40:00,SystemResetWarning,0823.1,5.00,000.00,025.0,024.3,000.0,033.2,027.0,016.5,0000.0,0002.72,0006.94,0001.80
2024-04-22 22:41:00,SystemResetWarning,0823.3,5.00,000.00,025.1,024.4,000.0,033.2,027.0,016.8,0000.0,0002.59,0006.93,0001.75
2024-04-22 22:42:00,SystemResetWarning,0823.3,5.00,000.00,025.2,024.6,000.0,033.2,027.1,016.6,0000.0,0002.52,0007.46,0001.70
2024-04-22 22:43:00,SystemResetWarning,0823.3,5.00,000.00,025.2,024.7,000.0,033.3,027.2,016.9,0000.0,0002.43,0007.76,0001.64
2024-04-22 22:44:00,SystemResetWarning,0823.3,5.00,000.00,025.3,024.8,000.0,033.3,027.3,016.7,0000.0,0002.36,0007.68,0001.59
2024-04-22 22:45:00,SystemResetWarning,0823.2,4.99,000.00,025.4,024.9,000.0,033.4,027.3,017.0,0000.0,0002.27,0006.91,0001.52
2024-04-22 22:46:00,SystemResetWarning,0823.0,5.00,000.00,025.4,025.0,000.0,033.4,027.4,016.9,0000.0,0002.24,0006.82,0001.48
2024-04-22 22:47:00,SystemResetWarning,0823.0,5.00,000.00,025.5,025.0,000.0,033.5,027.4,016.2,0000.0,0002.25,0006.63,0001.46
2024-04-22 22:48:00,SystemResetWarning,0823.1,4.97,000.00,025.3,023.1,000.0,033.5,026.4,015.5,0000.0,0002.24,0006.47,0001.45
2024-04-22 22:49:00,SystemResetWarning,0822.9,5.03,000.00,024.8,021.3,000.0,033.5,025.3,016.7,0000.0,0002.31,0006.66,0001.45
2024-04-22 22:50:00,SystemResetWarning,0822.9,4.99,000.00,024.6,021.4,000.0,033.5,025.2,016.5,0000.0,0002.29,0006.17,0001.47
2024-04-22 22:51:00,SystemResetWarning,0823.0,4.99,000.00,024.5,021.9,000.0,033.3,025.5,016.6,0000.0,0002.21,0005.38,0001.46
2024-04-22 22:52:00,SystemResetWarning,0823.0,5.01,000.00,024.5,022.3,000.0,033.2,025.9,016.3,0000.0,0002.20,0005.23,0001.47
2024-04-22 22:53:00,SystemResetWarning,0822.9,5.01,000.00,024.6,022.7,000.0,033.2,026.1,016.2,0000.0,0002.22,0004.66,0001.48
2024-04-22 22:54:00,SystemResetWarning,0823.0,5.00,000.00,024.6,023.1,000.0,033.1,026.3,016.0,0000.0,0002.23,0003.88,0001.49
2024-04-22 22:55:00,SystemResetWarning,0823.0,5.00,000.00,024.7,023.4,000.0,033.1,026.5,017.0,0000.0,0002.22,0004.36,0001.50
2024-04-22 22:56:00,SystemResetWarning,0823.0,5.00,000.00,024.8,023.7,000.0,033.1,026.6,016.4,0000.0,0002.19,0004.72,0001.52
2024-04-22 22:57:00,SystemResetWarning,0823.1,5.00,000.00,024.9,023.9,000.0,033.1,026.8,016.8,0000.0,0002.15,0006.33,0001.52
2024-04-22 22:58:00,SystemResetWarning,0823.0,4.99,000.00,024.9,024.1,000.0,033.2,026.9,016.5,0000.0,0002.04,0006.19,0001.50
2024-04-22 22:59:00,SystemResetWarning,0823.0,5.00,000.00,025.0,024.3,000.0,033.2,027.0,016.7,0000.0,0001.99,0006.21,0001.47
